User: anonymous   Login
Location: Taipo
(41.0000°S, 175.9500°E)
Time: 14:38:58
(UTC+00:00)
Language:

USA 238 - Orbit

View from above orbital plane
View from above orbital plane
View from above satellite
View from above satellite

Ground track
Ground track

The orbit data is extracted from the following two-line orbital elements,

1 38758U 12048A   24120.84370356 0.00000000  00000-0  00000-0 0    04
2 38758  63.4261  34.0691 0258361 358.7166   1.0804 13.40907107    04
Epoch (UTC): 29 April 2024 20:14:55
Eccentricity: 0.0258361
inclination: 63.4261°
perigee height: 912 km
apogee height: 1299 km
right ascension of ascending node: 34.0691°
argument of perigee: 358.7166°
revolutions per day: 13.40907107
mean anomaly at epoch: 1.0804°
orbit number at epoch: 0

The dashed part of the orbit path shows where the satellite is in the earth's shadow,  

DLR